Regional Weather Roundup
Issued by NWS

Home | Current Version | Previous Version | Text Only | Print | Product List | Glossary On
Versions: 1 2 3 4 5 6 7 8 9 10 11 12 13 14 15 16 17 18 19 20 21 22 23 24 25 26 27 28 29 30 31 32 33 34 35 36 37 38 39 40 41 42 43 44 45 46 47 48 49 50
000
ASUS46 KLOX 200812
RWRCA

SOUTHERN CALIFORNIA WEATHER ROUNDUP
NATIONAL WEATHER SERVICE OXNARD CALIFORNIA
100 AM PDT WED AUG 20 2014

NOTE: "FAIR" INDICATES FEW OR NO CLOUDS BELOW 12,000 FEET WITH NO
SIGNIFICANT WEATHER AND/OR OBSTRUCTIONS TO VISIBILITY.

  -  STATIONS PRECEEDED BY AN ASTERISK (*) ARE NOT NWS OR FAA
     STATIONS AND ARE NOT SUBJECT TO NWS AND FAA QUALITY CONTROL.

CAZ041-042-087-200900-
LA AND ORANGE COUNTY COASTAL AREAS


CITY           SKY/WX    TMP DP  RH WIND       PRES   REMARKS
L.A. DOWNTOWN  CLOUDY    71  60  68 CALM      29.88R
L.A. AIRPORT   CLOUDY    69  60  73 SW7       29.89R
LONG BEACH     CLOUDY    69  61  75 SE3       29.88S

CITY           SKY/WX    TMP DP  RH WIND       PRES   REMARKS
AVALON           N/A     68 N/A N/A MISG        N/A
FULLERTON      CLEAR     70  59  68 S5        29.88S
HAWTHORNE      CLOUDY    70  62  76 CALM      29.89R
*LEO CARRILLO    N/A     67  63  86 W5          N/A
*LOS ALAMITOS  CLOUDY    69  61  75 SE6       29.88S
*REDONDO BEACH   N/A     68  61  79 CALM      29.88R
SANTA ANA      MOCLDY    71  59  65 SE5       29.88F
STA MONICA APT CLOUDY    69  60  73 SW5       29.89R

$$

CAZ547-548-048-200900-
LA COUNTY VALLEYS AND INLAND EMPIRE


CITY           SKY/WX    TMP DP  RH WIND       PRES   REMARKS
BURBANK        CLOUDY    68  59  73 S6        29.89R
VAN NUYS       CLOUDY    68  59  73 S5        29.89R

CITY           SKY/WX    TMP DP  RH WIND       PRES   REMARKS
CORONA AIRPORT SUNNY     62  57  83 CALM        N/A
*CHATSWORTH      N/A     67  61  79 CALM      29.85S
CHINO          MOCLDY    63  59  87 MISG      29.91S
MARCH AFB      CLEAR     64  58  80 CALM      29.92S
ONTARIO        PTCLDY    66  60  81 W5        29.90S
*PASADENA        N/A     68  63  83 E3          N/A
RIVERSIDE      CLEAR     66  59  78 W3        29.91R
SAN BERNARDINO NOT AVBL
*SAN GABRIEL     N/A     69  59  70 CALM      29.85S
*SAN RAFAEL HI   N/A     62  62 100 S3          N/A
*SAUGUS          N/A     60  58  92 CALM        N/A
*WHITEMAN AP   NOT AVBL
*WHITTIER HILL   N/A     64  62  92 S3          N/A
*WOODLAND HILL   N/A     66  59  77 E2          N/A

$$

CAZ054-055-200900-
LA AND SAN BERNARDINO COUNTY MOUNTAINS


CITY           SKY/WX    TMP DP  RH WIND       PRES   REMARKS
*BIG BEAR AIRP MOSUNNY   55  27  33 SW6       30.12S
MT WILSON NWS    N/A     54  25  32 MISG        N/A
SANDBERG       CLEAR     58  53  84 SW7       30.01S
*WARM SPRINGS    N/A     58  52  79 W6          N/A

$$

CAZ028-029-059-060-099-200900-
ANTELOPE VALLEY AND SURROUNDING AREAS


CITY           SKY/WX    TMP DP  RH WIND       PRES   REMARKS
LANCASTER      CLEAR     66  44  45 SW9       29.89F
PALMDALE       CLEAR     66  46  48 S15       29.90S
*POPPY PARK      N/A     66  48  51 SW14        N/A

CITY           SKY/WX    TMP DP  RH WIND       PRES   REMARKS
29 PALMS       MOCLDY    81  42  25 CALM      29.91R
BARSTOW/DAGGET NOT AVBL
BISHOP         CLEAR     67  29  24 S6        29.90R
CHINA LAKE     CLEAR     73  44  35 S14       29.80S
EDWARDS AFB    CLEAR     66  46  48 SW12      29.86F
MOJAVE         FAIR      68  39  34 SW8       29.89S
NEEDLES        CLEAR     85  59  41 SE6       29.77R
VICTORVILLE    CLEAR     64  48  55 S8        29.93S

$$

CAZ039-040-200900-
VENTURA AND SANTA BARBARA COUNTY COAST


CITY           SKY/WX    TMP DP  RH WIND       PRES   REMARKS
CAMARILLO      CLOUDY    69  60  73 NW6       29.88R
NWS OXNARD       N/A     65  60  81 CALM      29.88S
OXNARD AIRPORT CLOUDY    64  60  87 W9        29.88S
*POINT MUGU    CLOUDY    69  61  75 CALM      29.89R
SBA APT/GOLETA CLOUDY    65  61  87 SE6       29.89R
*SANTA BARBARA   N/A     65  60  81 CALM      29.97R
*VENTURA         N/A     66  61  83 W3        29.93S

$$

CAZ044-045-200900-
VENTURA COUNTY VALLEYS


CITY           SKY/WX    TMP DP  RH WIND       PRES   REMARKS
*SIMI VALLEY     N/A     67  60  79 CALM      29.82F
*OJAI            N/A     64  59  83 CALM      29.83S
*FILLMORE        N/A     62  58  86 CALM      29.79S

$$

CAZ053-200900-
VENTURA COUNTY MOUNTAINS


CITY           SKY/WX    TMP DP  RH WIND       PRES   REMARKS
*LOCKWOOD VLY    N/A     45  32  61 MISG        N/A
*ROSE VALLEY     N/A     46  43  87 MISG        N/A

$$

CAZ034-035-036-200900-
CENTRAL COAST AND SANTA YNEZ VALLEY


CITY           SKY/WX    TMP DP  RH WIND       PRES   REMARKS
SAN LUIS OBISP CLOUDY    61  55  81 NW6       29.89S
SANTA MARIA    CLOUDY    63  55  75 CALM      29.90R

CITY           SKY/WX    TMP DP  RH WIND       PRES   REMARKS
*CAL POLY SLO    N/A     61  57  88 CALM        N/A
*CAMBRIA         N/A     61  56  85 CALM      29.79S
*LOMPOC        CLOUDY    63  54  72 CALM      29.90S
*PISMO BEACH     N/A     63  58  84 CALM      29.89S
*SANTA YNEZ    FAIR      57  54  88 SE3       29.90S

$$

CAZ037-038-051-200900-
SAN LUIS OBISPO COUNTY INTERIOR AND CUYAMA VALLEY


CITY           SKY/WX    TMP DP  RH WIND       PRES   REMARKS
*CUYAMA          N/A     57  53  84 W6        29.81S
PASO ROBLES    CLEAR     56  52  86 CALM      29.89S

$$

CAZ032-033-061-200900-
SOUTHERN DESERTS


CITY           SKY/WX    TMP DP  RH WIND       PRES   REMARKS
BLYTHE         PTCLDY    84  52  33 S12       29.75R
IMPERIAL       PTCLDY    84  35  17 NW12      29.72S
PALM SPRINGS   PTCLDY    83  49  30 CALM      29.78R
THERMAL        MOCLDY    85  48  27 N10       29.72R

$$

ELSEWHERE ACROSS THE WESTERN UNITED STATES AND MEXICO


CITY           SKY/WX    TMP DP  RH WIND       PRES   REMARKS
DENVER, CO     CLOUDY    64  55  72 SW6       29.92F
GRAND CANYON,    N/A    N/A N/A N/A MISG        N/A
HONOLULU, HI   PTCLDY    79  66  65 NE7       29.99R
KAHULUI, MAUI  CLEAR     75  66  73 NE10      29.99R
LAKE TAHOE, CA CLEAR     54  40  59 CALM      30.08R
LAS VEGAS, NV  PTCLDY    80  53  39 SE3       29.80R
MAMMOTH LAKES, FAIR      52  32  46 W6        30.11S
MEXICO CITY, M MOCLDY    59  55  88 NE6       30.31F
PHOENIX, AZ    PTCLDY    79  64  60 N3        29.84S
PORTLAND, OR   MOCLDY    63  55  75 NW3       29.90R
RENO, NV       CLEAR     72  38  29 N10       29.94R
SALT LAKE CITY LGT RAIN  67  60  78 SE8       29.89S
SAN DIEGO, CA  CLOUDY    69  59  70 W3        29.91S
SAN FRANCISCO, PTCLDY    64  58  80 W5        29.86S
SAN JOSE, CA   CLEAR     63  57  81 SE8       29.86R
SEATTLE, WA    MOCLDY    60  50  69 SW9       29.87R
TIJUANA, MEX   CLOUDY    66  57  72 CALM      29.92S

$$

STATION/POSITION TIME  TEMP    WIND        PRES    VSBY  WAVE
                       AIR SEA DIR/SP/G                  HT/PER
                 (UTC) (F)     (DEG/KT/KT) (MB)    (MI)  (FT/S)
POINT ARGUELLO B NOT AVBL
WEST SANTA BARBA 0800   61 59  330/  8/  8 1011.3S         3/15
POINT CONCEPTION NOT AVBL
EAST SANTA BARBA 0800   63 64  230/  8/  8 1012.3R
SANTA MONICA BAY 0800   68 71   90/  4/  6 1011.8R         2/15


USA.gov is the U.S. government's official web portal to all federal, state and local government web resources and services.